When you browse on this site, cookies collect data to enhance your experience and personalize the content and advertising you see.
Visit our Privacy Policy to learn more. By continuing to use the site, you agree to this use of cookies and data.
  • en France
  • Liste des pays
  • À 7 jours
  • Température de l'eau
  • Carte satellitaire
  • Carte météo
  • Widgets météo
  • user-avatar
    Se connecter

    Météo par heure à Oran

    Ce jour, 17 Juin, Lundi

    Heure Température Précipitation Vent Pression Humidité
    00:00 +20°C° 0 mm 3 m/s 753 mmHg 89%
    01:00 +20°C° 0 mm 2 m/s 752 mmHg 87%
    02:00 +20°C° 0 mm 2 m/s 752 mmHg 85%
    03:00 +20°C° 0 mm 2 m/s 752 mmHg 84%
    04:00 +21°C° 0 mm 2 m/s 752 mmHg 82%
    05:00 +22°C° 0 mm 1 m/s 753 mmHg 80%
    06:00 +22°C° 0 mm 1 m/s 753 mmHg 81%
    07:00 +22°C° 0 mm 1 m/s 753 mmHg 77%
    08:00 +23°C° 0 mm 1 m/s 753 mmHg 73%
    09:00 +23°C° 0 mm 1 m/s 753 mmHg 70%
    10:00 +25°C° 0 mm 2 m/s 753 mmHg 64%
    11:00 +26°C° 0 mm 3 m/s 752 mmHg 58%
    12:00 +28°C° 0 mm 4 m/s 752 mmHg 52%
    13:00 +28°C° 0 mm 4 m/s 752 mmHg 52%
    14:00 +28°C° 0 mm 4 m/s 752 mmHg 53%
    15:00 +28°C° 0 mm 4 m/s 751 mmHg 53%
    16:00 +27°C° 0 mm 4 m/s 751 mmHg 55%
    17:00 +27°C° 0 mm 4 m/s 751 mmHg 57%
    18:00 +26°C° 0 mm 3 m/s 751 mmHg 60%
    19:00 +25°C° 0 mm 3 m/s 751 mmHg 63%
    20:00 +24°C° 0 mm 3 m/s 752 mmHg 66%
    21:00 +22°C° 0 mm 3 m/s 752 mmHg 70%
    22:00 +23°C° 0 mm 2 m/s 751 mmHg 71%
    23:00 +21°C° 0 mm 2 m/s 751 mmHg 73%

    Demain, 18 Juin, Mardi

    Heure Température Précipitation Vent Pression Humidité
    00:00 +22°C° 0 mm 1 m/s 751 mmHg 75%
    01:00 +22°C° 0 mm 1 m/s 751 mmHg 76%
    02:00 +21°C° 0 mm 1 m/s 751 mmHg 77%
    03:00 +21°C° 0 mm 1 m/s 750 mmHg 79%
    04:00 +21°C° 0 mm 1 m/s 751 mmHg 77%
    05:00 +22°C° 0 mm 1 m/s 751 mmHg 75%
    06:00 +20°C° 0 mm 0 m/s 751 mmHg 74%
    07:00 +24°C° 0 mm 1 m/s 751 mmHg 67%
    08:00 +25°C° 0 mm 1 m/s 751 mmHg 60%
    09:00 +27°C° 0 mm 1 m/s 751 mmHg 54%
    10:00 +28°C° 0 mm 2 m/s 751 mmHg 50%
    11:00 +29°C° 0 mm 2 m/s 751 mmHg 46%
    12:00 +30°C° 0 mm 3 m/s 751 mmHg 42%
    13:00 +30°C° 0 mm 3 m/s 751 mmHg 43%
    14:00 +30°C° 0 mm 3 m/s 750 mmHg 45%
    15:00 +29°C° 0 mm 3 m/s 750 mmHg 47%
    16:00 +28°C° 0 mm 3 m/s 750 mmHg 50%
    17:00 +27°C° 0 mm 2 m/s 749 mmHg 52%
    18:00 +26°C° 0 mm 2 m/s 749 mmHg 55%
    19:00 +25°C° 0 mm 2 m/s 750 mmHg 58%
    20:00 +25°C° 0 mm 2 m/s 750 mmHg 62%
    21:00 +24°C° 0 mm 2 m/s 750 mmHg 65%
    22:00 +23°C° 0 mm 2 m/s 751 mmHg 67%
    23:00 +23°C° 0 mm 2 m/s 751 mmHg 69%

    Après-demain, 19 Juin, Mercredi

    Heure Température Précipitation Vent Pression Humidité
    00:00 +21°C° 0 mm 2 m/s 751 mmHg 70%
    01:00 +21°C° 0 mm 2 m/s 750 mmHg 71%
    02:00 +21°C° 0 mm 2 m/s 750 mmHg 72%
    03:00 +20°C° 0 mm 2 m/s 750 mmHg 73%
    04:00 +21°C° 0 mm 2 m/s 750 mmHg 70%
    05:00 +21°C° 0 mm 2 m/s 750 mmHg 66%
    06:00 +23°C° 0 mm 2 m/s 751 mmHg 62%
    07:00 +25°C° 0 mm 2 m/s 751 mmHg 51%
    08:00 +27°C° 0 mm 2 m/s 751 mmHg 41%
    09:00 +29°C° 0 mm 3 m/s 751 mmHg 30%
    10:00 +30°C° 0 mm 3 m/s 750 mmHg 30%
    11:00 +32°C° 0 mm 4 m/s 750 mmHg 29%
    12:00 +33°C° 0 mm 4 m/s 750 mmHg 28%
    13:00 +32°C° 0 mm 4 m/s 750 mmHg 31%
    14:00 +32°C° 0 mm 4 m/s 749 mmHg 34%
    15:00 +30°C° 0 mm 5 m/s 748 mmHg 37%
    16:00 +29°C° 0 mm 5 m/s 748 mmHg 40%
    17:00 +28°C° 0 mm 5 m/s 748 mmHg 43%
    18:00 +27°C° 0 mm 4 m/s 748 mmHg 45%
    19:00 +26°C° 0 mm 4 m/s 749 mmHg 49%
    20:00 +26°C° 0 mm 4 m/s 749 mmHg 52%
    21:00 +25°C° 0 mm 3 m/s 749 mmHg 56%
    22:00 +24°C° 0 mm 3 m/s 749 mmHg 56%
    23:00 +23°C° 0 mm 4 m/s 749 mmHg 55%

    20 Juin, Jeudi

    Heure Température Précipitation Vent Pression Humidité
    00:00 +23°C° 0 mm 4 m/s 749 mmHg 55%
    01:00 +23°C° 0 mm 4 m/s 749 mmHg 55%
    02:00 +22°C° 0 mm 4 m/s 749 mmHg 54%
    03:00 +22°C° 0 mm 4 m/s 749 mmHg 54%
    04:00 +22°C° 0 mm 4 m/s 749 mmHg 54%
    05:00 +22°C° 0 mm 5 m/s 749 mmHg 55%
    06:00 +22°C° 0 mm 5 m/s 749 mmHg 55%
    07:00 +24°C° 0 mm 6 m/s 749 mmHg 51%
    08:00 +27°C° 0 mm 6 m/s 749 mmHg 46%
    09:00 +28°C° 0 mm 7 m/s 750 mmHg 41%
    10:00 +29°C° 0 mm 7 m/s 749 mmHg 40%
    11:00 +30°C° 0 mm 7 m/s 749 mmHg 39%
    12:00 +30°C° 0 mm 7 m/s 749 mmHg 38%
    13:00 +30°C° 0 mm 7 m/s 749 mmHg 38%
    14:00 +30°C° 0 mm 7 m/s 748 mmHg 37%
    15:00 +29°C° 0 mm 7 m/s 748 mmHg 37%
    16:00 +29°C° 0 mm 7 m/s 748 mmHg 36%
    17:00 +28°C° 0 mm 6 m/s 748 mmHg 35%
    18:00 +28°C° 0 mm 5 m/s 748 mmHg 35%
    19:00 +27°C° 0 mm 5 m/s 748 mmHg 39%
    20:00 +26°C° 0 mm 4 m/s 749 mmHg 43%
    21:00 +25°C° 0 mm 4 m/s 749 mmHg 47%
    22:00 +23°C° 0 mm 4 m/s 749 mmHg 48%
    23:00 +23°C° 0 mm 5 m/s 749 mmHg 49%

    21 Juin, Vendredi

    Heure Température Précipitation Vent Pression Humidité
    00:00 +22°C° 0 mm 5 m/s 749 mmHg 51%
    01:00 +22°C° 0 mm 5 m/s 749 mmHg 55%
    02:00 +22°C° 0 mm 5 m/s 749 mmHg 58%
    03:00 +21°C° 0 mm 5 m/s 749 mmHg 62%
    04:00 +21°C° 0 mm 6 m/s 749 mmHg 62%
    05:00 +21°C° 0 mm 6 m/s 749 mmHg 61%
    06:00 +22°C° 0 mm 6 m/s 749 mmHg 61%
    07:00 +23°C° 0 mm 7 m/s 750 mmHg 56%
    08:00 +26°C° 0 mm 7 m/s 750 mmHg 51%
    09:00 +27°C° 0 mm 8 m/s 750 mmHg 46%
    10:00 +28°C° 0 mm 8 m/s 750 mmHg 44%
    11:00 +28°C° 0 mm 7 m/s 750 mmHg 42%
    12:00 +29°C° 0 mm 7 m/s 750 mmHg 40%
    13:00 +29°C° 0 mm 7 m/s 749 mmHg 40%
    14:00 +29°C° 0 mm 7 m/s 749 mmHg 39%
    15:00 +29°C° 0 mm 7 m/s 749 mmHg 39%
    16:00 +28°C° 0 mm 6 m/s 749 mmHg 41%
    17:00 +28°C° 0 mm 6 m/s 749 mmHg 43%
    18:00 +27°C° 0 mm 5 m/s 750 mmHg 45%
    19:00 +26°C° 0 mm 5 m/s 750 mmHg 46%
    20:00 +25°C° 0 mm 4 m/s 750 mmHg 48%
    21:00 +24°C° 0 mm 3 m/s 751 mmHg 50%
    22:00 +22°C° 0 mm 3 m/s 751 mmHg 50%
    23:00 +22°C° 0 mm 3 m/s 751 mmHg 49%

    22 Juin, Samedi

    Heure Température Précipitation Vent Pression Humidité
    00:00 +23°C° 0 mm 2 m/s 750 mmHg 49%
    01:00 +21°C° 0 mm 2 m/s 750 mmHg 49%
    02:00 +22°C° 0 mm 1 m/s 750 mmHg 49%
    03:00 +21°C° 0 mm 1 m/s 750 mmHg 49%
    04:00 +22°C° 0 mm 1 m/s 750 mmHg 48%
    05:00 +23°C° 0 mm 1 m/s 750 mmHg 47%
    06:00 +23°C° 0 mm 1 m/s 750 mmHg 46%
    07:00 +25°C° 0 mm 1 m/s 750 mmHg 42%
    08:00 +26°C° 0 mm 2 m/s 750 mmHg 37%
    09:00 +27°C° 0 mm 2 m/s 750 mmHg 33%
    10:00 +28°C° 0 mm 3 m/s 750 mmHg 33%
    11:00 +29°C° 0 mm 4 m/s 750 mmHg 33%
    12:00 +30°C° 0 mm 4 m/s 750 mmHg 33%
    13:00 +30°C° 0 mm 5 m/s 749 mmHg 36%
    14:00 +30°C° 0 mm 5 m/s 749 mmHg 38%
    15:00 +30°C° 0 mm 5 m/s 748 mmHg 41%
    16:00 +29°C° 0 mm 5 m/s 748 mmHg 46%
    17:00 +28°C° 0 mm 5 m/s 748 mmHg 51%
    18:00 +27°C° 0 mm 5 m/s 748 mmHg 56%
    19:00 +26°C° 0 mm 4 m/s 749 mmHg 62%
    20:00 +25°C° 0 mm 3 m/s 749 mmHg 68%
    21:00 +22°C° 0 mm 3 m/s 749 mmHg 73%
    22:00 +22°C° 0 mm 3 m/s 749 mmHg 76%
    23:00 +21°C° 0 mm 3 m/s 749 mmHg 79%
    Voir plus